�������l�o���
Date,Time,MP-1(��Sv/h),MP-2(��Sv/h),MP-3(��Sv/h),MP-4(��Sv/h),MP-5(��Sv/h),MP-6(��Sv/h),MP-7(��Sv/h),MP-8(��Sv/h),����,����(m/s),���J
2021/11/05,00:00,0.592,0.889,0.566,1.091,0.766,0.358,0.625,0.586,���k��,4.9,��
2021/11/05,00:10,0.590,0.891,0.564,1.090,0.765,0.359,0.626,0.586,�k��,5.4,��
2021/11/05,00:20,0.591,0.890,0.564,1.089,0.765,0.359,0.624,0.585,�k��,5.4,��
2021/11/05,00:30,0.593,0.888,0.565,1.088,0.765,0.358,0.626,0.585,�k��,5.5,��
2021/11/05,00:40,0.591,0.890,0.564,1.088,0.766,0.359,0.626,0.586,�k��,5.3,��
2021/11/05,00:50,0.592,0.890,0.564,1.089,0.764,0.358,0.626,0.585,�k��,5.1,��
2021/11/05,01:00,0.592,0.890,0.564,1.090,0.764,0.358,0.626,0.586,���k��,5.6,��
2021/11/05,01:10,0.592,0.890,0.561,1.090,0.764,0.358,0.624,0.586,���k��,5.6,��
2021/11/05,01:20,0.592,0.890,0.564,1.090,0.765,0.358,0.624,0.585,���k��,4.9,��
2021/11/05,01:30,0.592,0.889,0.563,1.090,0.764,0.358,0.626,0.585,���k��,4.7,��
2021/11/05,01:40,0.592,0.890,0.563,1.088,0.764,0.360,0.626,0.587,���k��,4.7,��
2021/11/05,01:50,0.590,0.889,0.564,1.090,0.765,0.359,0.625,0.586,���k��,3.7,��
2021/11/05,02:00,0.591,0.890,0.564,1.089,0.766,0.357,0.624,0.584,�k��,5.1,��
2021/11/05,02:10,0.592,0.889,0.562,1.088,0.765,0.358,0.624,0.584,�k��,4.4,��
2021/11/05,02:20,0.592,0.890,0.563,1.089,0.765,0.357,0.624,0.587,�k��,4.8,��
2021/11/05,02:30,0.593,0.887,0.562,1.089,0.766,0.358,0.625,0.583,�k��,5.4,��
2021/11/05,02:40,0.591,0.889,0.562,1.088,0.764,0.357,0.624,0.585,���k��,4.9,��
2021/11/05,02:50,0.591,0.889,0.562,1.088,0.766,0.359,0.625,0.585,�k��,5.1,��
2021/11/05,03:00,0.591,0.890,0.562,1.088,0.765,0.359,0.626,0.585,�k��,5.2,��
2021/11/05,03:10,0.591,0.889,0.562,1.088,0.765,0.358,0.623,0.585,�k��,5.2,��
2021/11/05,03:20,0.592,0.891,0.563,1.089,0.764,0.359,0.624,0.586,�k��,4.6,��
2021/11/05,03:30,0.592,0.890,0.562,1.087,0.765,0.358,0.625,0.586,�k��,4.5,��
2021/11/05,03:40,0.592,0.889,0.563,1.090,0.764,0.358,0.625,0.585,�k��,5.1,��
2021/11/05,03:50,0.592,0.889,0.563,1.089,0.763,0.359,0.626,0.585,�k��,5.4,��
2021/11/05,04:00,0.591,0.888,0.562,1.089,0.765,0.357,0.626,0.586,�k��,5.4,��
2021/11/05,04:10,0.590,0.890,0.563,1.090,0.765,0.358,0.624,0.585,�k��,6.1,��
2021/11/05,04:20,0.590,0.890,0.565,1.090,0.764,0.359,0.625,0.584,�k��,5.7,��
2021/11/05,04:30,0.592,0.890,0.564,1.089,0.765,0.359,0.623,0.585,�k��,5.9,��
2021/11/05,04:40,0.590,0.889,0.563,1.089,0.764,0.358,0.625,0.584,�k��,5.7,��
2021/11/05,04:50,0.592,0.889,0.563,1.089,0.765,0.358,0.626,0.586,�k��,5.3,��
2021/11/05,05:00,0.591,0.890,0.563,1.088,0.764,0.359,0.626,0.585,�k��,5.4,��
2021/11/05,05:10,0.591,0.888,0.562,1.089,0.764,0.358,0.624,0.585,�k��,5.8,��
2021/11/05,05:20,0.590,0.890,0.561,1.090,0.765,0.358,0.625,0.585,�k��,5.5,��
2021/11/05,05:30,0.592,0.888,0.563,1.090,0.765,0.358,0.623,0.585,�k��,5.6,��
2021/11/05,05:40,0.591,0.888,0.562,1.090,0.765,0.357,0.624,0.585,�k��,5.6,��
2021/11/05,05:50,0.592,0.889,0.564,1.089,0.765,0.359,0.625,0.586,�k��,5.2,��
2021/11/05,06:00,0.592,0.889,0.562,1.089,0.765,0.360,0.625,0.586,�k��,4.9,��
2021/11/05,06:10,0.592,0.889,0.563,1.092,0.766,0.357,0.624,0.586,�k��,5.2,��
2021/11/05,06:20,0.590,0.889,0.563,1.090,0.765,0.358,0.626,0.584,�k��,6.1,��
2021/11/05,06:30,0.592,0.891,0.563,1.091,0.764,0.357,0.623,0.584,�k��,5.1,��
2021/11/05,06:40,0.591,0.890,0.563,1.091,0.764,0.359,0.625,0.587,�k��,5.0,��
2021/11/05,06:50,0.591,0.888,0.562,1.091,0.765,0.359,0.625,0.585,�k��,5.8,��
2021/11/05,07:00,0.590,0.893,0.562,1.091,0.765,0.359,0.624,0.584,�k��,5.7,��
2021/11/05,07:10,0.591,0.889,0.564,1.090,0.764,0.358,0.625,0.587,�k��,5.8,��
2021/11/05,07:20,0.591,0.887,0.563,1.090,0.762,0.356,0.624,0.584,�k��,6.1,��
2021/11/05,07:30,0.591,0.889,0.563,1.091,0.766,0.358,0.625,0.586,�k��,6.8,��
2021/11/05,07:40,0.589,0.890,0.562,1.089,0.763,0.357,0.623,0.585,�k��,7.0,��
2021/11/05,07:50,0.594,0.888,0.563,1.091,0.764,0.359,0.625,0.587,�k�k��,6.2,��
2021/11/05,08:00,0.591,0.891,0.562,1.091,0.765,0.359,0.625,0.586,�k��,5.5,��
2021/11/05,08:10,0.592,0.890,0.562,1.087,0.765,0.357,0.626,0.586,�k�k��,5.7,��
2021/11/05,08:20,0.594,0.888,0.564,1.089,0.765,0.359,0.625,0.585,�k��,4.8,��
2021/11/05,08:30,0.592,0.888,0.564,1.088,0.766,0.358,0.625,0.586,�k��,2.8,��
2021/11/05,08:40,0.593,0.890,0.564,1.090,0.766,0.359,0.625,0.586,�k��,3.5,��
2021/11/05,08:50,0.592,0.887,0.563,1.090,0.767,0.358,0.624,0.586,�k�k��,2.9,��
2021/11/05,09:00,0.592,0.888,0.565,1.090,0.765,0.359,0.623,0.586,�k�k��,3.2,��
2021/11/05,09:10,0.589,0.886,0.563,1.091,0.765,0.359,0.625,0.586,�k�k��,3.4,��
2021/11/05,09:20,0.589,0.886,0.564,1.089,0.765,0.359,0.623,0.586,�k��,5.2,��
2021/11/05,09:30,0.589,0.888,0.564,1.087,0.764,0.359,0.624,0.587,�k,4.1,��
2021/11/05,09:40,0.590,0.886,0.565,1.093,0.766,0.359,0.623,0.587,�k�k��,5.4,��
2021/11/05,09:50,0.591,0.886,0.566,1.088,0.765,0.359,0.624,0.585,�k,4.0,��
2021/11/05,10:00,0.591,0.886,0.566,1.091,0.764,0.357,0.624,0.585,�k�k��,3.8,��
2021/11/05,10:10,0.592,0.886,0.564,1.089,0.763,0.358,0.625,0.587,�k�k��,5.2,��
2021/11/05,10:20,0.592,0.888,0.563,1.090,0.764,0.356,0.626,0.585,�k�k��,4.7,��
2021/11/05,10:30,0.592,0.887,0.563,1.091,0.764,0.357,0.624,0.586,�k�k��,6.1,��
2021/11/05,10:40,0.592,0.888,0.562,1.091,0.765,-,0.624,0.587,�k�k��,5.7,��
2021/11/05,10:50,0.591,0.887,0.563,1.090,0.764,-,0.625,0.587,�k,2.6,��
2021/11/05,11:00,0.592,0.887,0.563,1.090,0.766,-,0.626,0.587,�k�k��,5.1,��
2021/11/05,11:10,0.591,0.887,0.562,1.091,0.765,-,0.624,0.588,�k,5.1,��
2021/11/05,11:20,0.594,0.887,0.562,1.091,0.767,-,0.626,0.585,�k�k��,5.1,��
2021/11/05,11:30,0.593,0.890,0.562,1.091,0.766,-,0.625,0.586,�k,6.7,��
2021/11/05,11:40,0.592,0.889,0.563,1.092,0.766,-,0.626,0.586,�k�k��,6.8,��
2021/11/05,11:50,0.590,0.889,0.563,1.092,0.767,-,0.626,0.586,�k,4.9,��
2021/11/05,12:00,0.594,0.892,0.563,1.092,0.768,-,0.625,0.586,�k�k��,9.1,��
2021/11/05,12:10,0.594,0.891,0.564,1.091,0.766,-,0.626,0.585,�k�k��,8.0,��
2021/11/05,12:20,0.592,0.890,0.564,1.093,0.768,-,0.625,0.586,�k�k��,8.5,��
2021/11/05,12:30,0.591,0.891,0.564,1.092,0.766,-,0.625,0.585,�k�k��,8.3,��
2021/11/05,12:40,0.593,0.890,0.563,1.093,0.766,-,0.625,0.584,�k�k��,8.9,��
2021/11/05,12:50,0.593,0.889,0.562,1.091,0.767,-,0.622,0.584,�k�k��,7.8,��
2021/11/05,13:00,0.594,0.891,0.563,1.093,0.765,-,0.625,0.585,�k�k��,7.5,��
2021/11/05,13:10,0.592,0.888,0.564,1.094,0.767,-,0.624,0.584,�k�k��,7.7,��
2021/11/05,13:20,0.592,0.890,0.563,1.092,0.769,-,0.626,0.583,�k�k��,7.0,��
2021/11/05,13:30,0.595,0.888,0.565,1.093,0.766,-,0.624,0.583,�k�k��,7.8,��
2021/11/05,13:40,0.593,0.889,0.565,1.093,0.767,-,0.623,0.584,�k�k��,7.9,��
2021/11/05,13:50,0.593,0.888,0.565,1.094,0.766,-,0.624,0.585,�k�k��,7.9,��
2021/11/05,14:00,0.592,0.889,0.565,1.091,0.766,-,0.625,0.585,�k�k��,7.4,��
2021/11/05,14:10,0.593,0.889,0.565,1.093,0.768,-,0.623,0.585,�k�k��,7.5,��
2021/11/05,14:20,0.593,0.890,0.564,1.092,0.765,-,0.624,0.585,�k�k��,8.4,��
2021/11/05,14:30,0.592,0.890,0.563,1.095,0.766,0.359,0.624,0.582,�k�k��,7.4,��
2021/11/05,14:40,0.594,0.886,0.561,1.092,0.766,0.359,0.624,0.584,�k�k��,7.7,��
2021/11/05,14:50,0.595,0.891,0.563,1.093,0.767,0.359,0.625,0.584,�k�k��,7.2,��
2021/11/05,15:00,0.592,0.888,0.565,1.092,0.767,0.358,0.624,0.584,�k�k��,6.5,��
2021/11/05,15:10,0.593,0.890,0.563,1.092,0.767,0.359,0.623,0.584,�k�k��,6.0,��
2021/11/05,15:20,0.593,0.892,0.563,1.094,0.767,0.358,0.623,0.584,�k�k��,6.5,��
2021/11/05,15:30,0.591,0.892,0.564,1.093,0.767,0.359,0.625,0.584,�k�k��,5.5,��
2021/11/05,15:40,0.591,0.892,0.563,1.092,0.767,0.359,0.624,0.586,�k�k��,5.1,��
2021/11/05,15:50,0.593,0.893,0.563,1.091,0.766,0.359,0.625,0.585,�k,5.2,��
2021/11/05,16:00,0.590,0.894,0.564,1.092,0.766,0.359,0.624,0.585,�k,3.4,��
2021/11/05,16:10,0.593,0.896,0.565,1.094,0.767,0.360,0.623,0.585,�k�k��,3.0,��
2021/11/05,16:20,0.593,0.894,0.566,1.094,0.766,0.360,0.622,0.586,�k�k��,2.5,��
2021/11/05,16:30,0.595,0.895,0.567,1.092,0.767,0.359,0.624,0.586,�k��,2.8,��
2021/11/05,16:40,0.594,0.893,0.565,1.092,0.769,0.361,0.623,0.586,�k�k��,2.6,��
2021/11/05,16:50,0.593,0.895,0.564,1.092,0.771,0.358,0.625,0.587,�k�k��,3.2,��
2021/11/05,17:00,0.595,0.895,0.565,1.094,0.768,0.359,0.625,0.587,�k�k��,3.0,��
2021/11/05,17:10,0.594,0.895,0.563,1.092,0.769,0.358,0.625,0.586,�k�k��,3.5,��
2021/11/05,17:20,0.593,0.895,0.566,1.091,0.770,0.358,0.625,0.587,�k�k��,3.4,��
2021/11/05,17:30,0.593,0.895,0.563,1.093,0.770,0.360,0.625,0.587,�k�k��,3.2,��
2021/11/05,17:40,0.592,0.895,0.566,1.094,0.769,0.360,0.623,0.586,�k�k��,3.0,��
2021/11/05,17:50,0.595,0.893,0.565,1.093,0.769,0.360,0.625,0.586,�k�k��,2.6,��
2021/11/05,18:00,0.595,0.894,0.564,1.094,0.769,0.360,0.625,0.586,�k�k��,3.4,��
2021/11/05,18:10,0.594,0.894,0.563,1.093,0.768,0.360,0.623,0.588,�k�k��,3.2,��
2021/11/05,18:20,0.592,0.894,0.565,1.092,0.768,0.359,0.626,0.586,�k�k��,2.8,��
2021/11/05,18:30,0.594,0.893,0.565,1.095,0.768,0.359,0.625,0.587,�k��,3.5,��
2021/11/05,18:40,0.595,0.893,0.565,1.093,0.767,0.360,0.626,0.586,�k��,3.2,��
2021/11/05,18:50,0.594,0.893,0.565,1.093,0.769,0.358,0.625,0.586,�k�k��,3.8,��
2021/11/05,19:00,0.594,0.895,0.565,1.093,0.770,0.358,0.624,0.587,�k��,3.8,��
2021/11/05,19:10,0.593,0.895,0.565,1.094,0.768,0.358,0.624,0.588,�k�k��,3.8,��
2021/11/05,19:20,0.595,0.894,0.564,1.093,0.768,0.358,0.624,0.588,�k�k��,3.9,��
2021/11/05,19:30,0.593,0.894,0.564,1.090,0.769,0.358,0.624,0.586,�k�k��,4.3,��
2021/11/05,19:40,0.593,0.894,0.563,1.091,0.770,0.359,0.625,0.588,�k�k��,3.4,��
2021/11/05,19:50,0.594,0.893,0.564,1.092,0.770,0.357,0.624,0.586,�k�k��,3.0,��
2021/11/05,20:00,0.593,0.893,0.564,1.095,0.769,0.359,0.626,0.586,�k�k��,3.4,��
2021/11/05,20:10,0.594,0.895,0.563,1.092,0.770,0.357,0.624,0.588,�k�k��,3.4,��
2021/11/05,20:20,0.593,0.893,0.563,1.091,0.770,0.359,0.625,0.586,�k�k��,4.6,��
2021/11/05,20:30,0.595,0.894,0.564,1.095,0.767,0.359,0.625,0.586,�k�k��,5.2,��
2021/11/05,20:40,0.593,0.896,0.564,1.093,0.769,0.358,0.625,0.586,�k�k��,4.6,��
2021/11/05,20:50,0.594,0.894,0.564,1.093,0.770,0.359,0.623,0.586,�k��,4.8,��
2021/11/05,21:00,0.594,0.895,0.563,1.092,0.768,0.360,0.625,0.585,�k�k��,4.3,��
2021/11/05,21:10,0.594,0.894,0.564,1.093,0.767,0.358,0.625,0.586,�k�k��,5.1,��
2021/11/05,21:20,0.593,0.895,0.564,1.091,0.770,0.359,0.624,0.586,�k�k��,6.1,��
2021/11/05,21:30,0.593,0.892,0.566,1.092,0.768,0.358,0.625,0.585,�k�k��,5.2,��
2021/11/05,21:40,0.594,0.894,0.565,1.091,0.769,0.358,0.625,0.587,�k�k��,4.9,��
2021/11/05,21:50,0.594,0.891,0.564,1.093,0.767,0.359,0.626,0.585,�k�k��,4.2,��
2021/11/05,22:00,0.592,0.895,0.564,1.093,0.769,0.358,0.625,0.585,�k,3.9,��
2021/11/05,22:10,0.592,0.896,0.562,1.094,0.769,0.358,0.625,0.586,�k,2.9,��
2021/11/05,22:20,0.594,0.894,0.565,1.093,0.768,0.357,0.624,0.587,�k�k��,3.1,��
2021/11/05,22:30,0.594,0.892,0.566,1.092,0.769,0.359,0.625,0.586,�k��,3.7,��
2021/11/05,22:40,0.594,0.894,0.566,1.092,0.769,0.358,0.625,0.587,�k��,3.8,��
2021/11/05,22:50,0.594,0.895,0.565,1.093,0.768,0.359,0.624,0.587,�k��,4.3,��
2021/11/05,23:00,0.594,0.895,0.564,1.092,0.770,0.359,0.625,0.586,�k��,4.4,��
2021/11/05,23:10,0.593,0.893,0.564,1.093,0.769,0.359,0.623,0.586,�k��,5.4,��
2021/11/05,23:20,0.595,0.895,0.564,1.093,0.770,0.359,0.623,0.585,�k��,5.2,��
2021/11/05,23:30,0.594,0.894,0.565,1.094,0.766,0.359,0.626,0.587,�k�k��,5.4,��
2021/11/05,23:40,0.591,0.892,0.565,1.093,0.768,0.359,0.624,0.587,�k�k��,5.4,��
2021/11/05,23:50,0.592,0.893,0.565,1.094,0.768,0.359,0.624,0.587,�k�k��,4.7,��
